Tuesday, March 03, 2015
20:17 UTC
  |  Log In   |  Register Free
Airport Search:

Smithville Municipal Airport
(0A3)

Smithville Municipal Airport Diagram
No Airport Diagram Available

FAA data valid effective January 08, 2015 - March 05, 2015 (unless otherwise noted).

 
 
 
 
 
 
 
 
 
 
 
 
 
 

Current Aviation Weather for Smithville Municipal Airport (0A3)

METAR data is unavailable for 0A3. The nearest METAR location is at KSRB (14.2 nm NE from 0A3).

The most recent METAR observation for KSRB was updated at: 2014
METAR Summary (Translated METAR)
KSRB
031955Z AUTO 21009KT 10SM OVC012 16/14 A3001 RMK
(14.2 nm NE from 0A3)
KRNC
031955Z AUTO 20007KT 10SM OVC007 16/16 A3003 RMK
(17.3 nm SW from 0A3)
TAF Summary (Translated TAF)
KRNC
(26.3 nm SW from KSRB)
311945Z AUTO 35008KT 10SM CLR 25/12 A3011 RMK AO1 T02500116 $
  Airport Weather Conditions for 0A3

Current weather conditions are
not available for 0A3


The nearest NOAA weather station
is at SRB, (14.2 nm NE from 0A3)
  
 Current Weather at SRB
61° F
Overcast
Southwest winds at 11.5 mph
SRB NOAA Radar

Pressure: 30.01 in
Humidity: 88%
Wind: Southwest at 11.5 MPH (10 KT)
Dew Point: 57.2°F
Visibility: 10.00 mi


Airport Weather Forecast for 0A3

Translated METAR and TAF for KSRB
Translated METAR for KSRB (2017 UTC 03 March 2015)
found at http://aviationweather.gov/adds/metars/
 
METAR text: KSRB 031955Z AUTO 21009KT 10SM OVC012 16/14 A3001 RMK
Conditions at: KSRB (SPARTA , TN, US) observed 1955 UTC 03 March 2015
Temperature: 16.0°C (61°F)
Dewpoint: 14.0°C (57°F) [RH = 88%]
Pressure (altimeter): 30.01 inches Hg (1016.3 mb)
Winds: from the SSW (210 degrees) at 10 MPH (9 knots; 4.7 m/s)
Visibility: 10 or more miles (16+ km)
Ceiling: 1200 feet AGL
Clouds: overcast cloud deck at 1200 feet AGL
Weather: no significant weather observed at this time
Translated TAF for KSRB

There is no translated TAF available for this airport

Find All Airport Services Find A Hotel Find A Rental Car Find A Golf Course Find A Restaurant $100 Hamburger



FBO's on the Field
FBO Company Facility Photos Services Transportation Aviation Fuel Prices: Prices include tax
Catering Weather Repair Courtesy Rental Type 100LL JetA JetA+ MOGAS 8087
 
Smithville Municipal Airport

This FBO has not yet been rated
FS:Shell
Last Updated: Feb-03
Login to update fuel prices
SS:
Contact Smithville Municipal AirportMore FBO Information
 
Add another FBO Facility Photos Catering Weather Repair Courtesy Rental Type 100LL JetA JetA+ MOGAS 8087
Services Transportation Aviation Fuel Prices: Prices include tax


model-print
model-print
model-print
model-print